FREGAT R/B, 45359

Orbit data source: Space-Track

FREGAT R/B, 45359 is space debris in MEO originally from a launch on Mon, 16 Mar 2020 UTC launched from the Plesetsk Missile And Space Complex (PKMTR). Debris objects in space refer to the collection of defunct objects orbiting the Earth. Examples of debris include non-operational satellites, rocket bodies, and fragments generated from explosions, collisions, or faulty payload assembly.

Loading next visibility...
Identifier
45359, 2020-018B
Orbit
MEO
Country
Flag of CISCIS
Related business
Manufacturer
Lavochkin
Mission
Spacecraft
Bus & Motor
FREGAT, Unknown motor
Mass
1,000 kg wet, 1,000 kg dry
Launch date (UTC)
2020-03-16 (6 years ago)
Launch vehicle
Unknown
Launch site
Plesetsk Missile And Space Complex (PKMTR)
Object type
Payload
Rocket body
Debris
Shape & HBR
Cyl, 1.7 m
Radar Cross Section
8.354 m², Large (>1 m²)

Expand to show TLE details & history
Last TLE update: 4 days ago

TLE from 4 days ago
0 FREGAT R/B
1 45359U 20018B   26169.27241064 -.00000060  00000-0  00000+0 0  9993
2 45359  64.3776 316.3526 0057792 137.2249 223.2148  2.07974385 47519
Epoch: 2026-06-18T06:32Z
TLE epoch observation values (Epoch: 2026-06-18T06:32:16.279Z)
Latitude
0.00002°
Longitude
-48.25001°
Altitude
19,657.565 km
Speed
3.905 km/s
True Right ascension
21h 05m 20s
True Declination
0° 00' 00"
Sunlit
Object was in daylight at epoch
Visualization orbit readout
Latitude
Unknown
Longitude
Unknown
Altitude
Unknown
Speed
Unknown
Apparent Right ascension
Unknown
Apparent Declination
Unknown
Sunlit
N/A
Visualization observer readout
Local Sidereal Time
21:25:13
Azimuth
Unknown
Elevation
Unknown
Doppler factor
Unknown
Orbital elements
Apogee altitude
19,696.921 km
Perigee altitude
19,397.267 km
Semi-major axis
25,925.231 km
Eccentricity
0.00578
Inclination
64.3776°
RAAN
316.3526°
Arg. of periapsis
137.2249°
True anomaly
222.76372°
Mean anomaly
223.2148°
Eccentric anomaly
222.98902°
Mean motion
0.51995 °/min
Orbital period
692.38 mins
BSTAR
0
Loading maneuver chart data...
Computing Atmospheric mass density...
Loading historical data...
Loading historical data...
Loading historical data...
Loading historical data...
Loading historical data...
Loading historical data...
Loading historical data...
Other satellites on launch #18 in the year 2020 (2020-03-16 UTC)

Documentation

Showing up to 5 results
|